Omaha, IA

4:29 PM CDT on April 28, 2017 (GMT -0500)
Eppley Airfield

Weather History for KOMA - October, 2012

Change the Weather History Date:

Wednesday, October 3, 2012

  Actual Average Record
Temperature  
Mean Temperature 63 °F 58 °F  
Max Temperature 81 °F 70 °F 96 °F (1938)
Min Temperature 45 °F 46 °F 31 °F (1980)
Degree Days  
Heating Degree Days 2 8  
Month to date heating degree days 15 23  
Since 1 July heating degree days 107 126  
Cooling Degree Days 0 1  
Month to date cooling degree days 0 3  
Year to date cooling degree days 1647 1100  
Growing Degree Days 13 (Base 50)    
Moisture  
Dew Point 38 °F    
Average Humidity 49    
Maximum Humidity 80    
Minimum Humidity 18    
Precipitation  
Precipitation 0.00 in 0.08 in 2.87 in (1884)
Month to date precipitation 0.00 0.25  
Year to date precipitation 18.31 26.04  
Snow  
Snow 0.00 in 0.00 in - ()
Month to date snowfall 0.0 0.0  
Since 1 July snowfall 0.0 0.0  
Snow Depth 0.00 in    
Sea Level Pressure  
Sea Level Pressure 29.86 in    
Wind  
Wind Speed 12 mph (SSE)    
Max Wind Speed 25 mph    
Max Gust Speed 35 mph    
Visibility 10 miles    
Events      
T = Trace of Precipitation, MM = Missing Value Source: NWS Daily Summary

Daily Weather History Graph

Daily Weather History Graph

Search for Another Location

Airport or City:

Trip Planner

Search our weather history database for the weather conditions in past years. The results will help you decide how hot, cold, wet, or windy it might be!

Date:

Astronomy

Oct. 03, 2012 Rise Set
Actual Time 7:22 AM CDT 7:01 PM CDT
Civil Twilight 6:55 AM CDT 7:28 PM CDT
Nautical Twilight 6:23 AM CDT 8:00 PM CDT
Astronomical Twilight 5:51 AM CDT 8:32 PM CDT
Moon 8:51 PM CDT (10/3) 10:49 AM CDT (10/3)
Length of Visible Light 12h 33m
Length of Day
11h 38m
Waning Gibbous, 88% of the Moon is Illuminated
Oct 3
Waning Gibbous
Oct 8
Last Quarter
Oct 15
New
Oct 21
First Quarter
Oct 29
Full

Hourly Weather History & Observations

Time (CDT) Temp. Dew Point Humidity Pressure Visibility Wind Dir Wind Speed Gust Speed Precip Events Conditions
12:52 AM 50.0 °F 42.1 °F 74% 29.90 in 10.0 mi Calm Calm - N/A   Clear
1:52 AM 48.0 °F 43.0 °F 83% 29.90 in 10.0 mi Calm Calm - N/A   Clear
2:52 AM 48.9 °F 39.9 °F 71% 29.90 in 10.0 mi South 3.5 mph - N/A   Clear
3:52 AM 51.1 °F 39.0 °F 63% 29.89 in 10.0 mi South 3.5 mph - N/A   Clear
4:52 AM 46.9 °F 39.0 °F 74% 29.90 in 10.0 mi SSE 4.6 mph - N/A   Clear
5:52 AM 46.9 °F 37.9 °F 71% 29.91 in 10.0 mi SE 4.6 mph - N/A   Clear
6:52 AM 46.9 °F 37.9 °F 71% 29.92 in 10.0 mi SSE 6.9 mph - N/A   Clear
7:52 AM 48.0 °F 39.0 °F 71% 29.92 in 10.0 mi SSE 5.8 mph - N/A   Clear
8:52 AM 53.1 °F 37.9 °F 57% 29.91 in 10.0 mi South 8.1 mph - N/A   Clear
9:52 AM 59.0 °F 37.9 °F 46% 29.90 in 10.0 mi SSE 10.4 mph - N/A   Clear
10:52 AM 66.0 °F 39.0 °F 37% 29.89 in 10.0 mi SSE 12.7 mph - N/A   Clear
11:52 AM 71.1 °F 39.0 °F 31% 29.86 in 10.0 mi South 16.1 mph - N/A   Clear
12:52 PM 75.0 °F 39.0 °F 27% 29.84 in 10.0 mi South 8.1 mph 21.9 mph N/A   Clear
1:52 PM 79.0 °F 35.1 °F 20% 29.81 in 10.0 mi South 20.7 mph 26.5 mph N/A   Clear
2:52 PM 80.1 °F 34.0 °F 19% 29.78 in 10.0 mi South 19.6 mph 26.5 mph N/A   Partly Cloudy
3:52 PM 81.0 °F 34.0 °F 18% 29.78 in 10.0 mi South 21.9 mph 27.6 mph N/A   Partly Cloudy
4:52 PM 80.1 °F 33.1 °F 18% 29.77 in 10.0 mi SSE 24.2 mph 32.2 mph N/A   Partly Cloudy
5:52 PM 79.0 °F 33.1 °F 19% 29.77 in 10.0 mi South 24.2 mph 27.6 mph N/A   Partly Cloudy
6:52 PM 75.9 °F 35.1 °F 23% 29.81 in 10.0 mi South 10.4 mph - N/A   Scattered Clouds
7:52 PM 71.1 °F 37.9 °F 30% 29.82 in 10.0 mi SSE 12.7 mph - N/A   Scattered Clouds
8:52 PM 69.1 °F 37.9 °F 32% 29.83 in 10.0 mi SSE 13.8 mph - N/A   Scattered Clouds
9:52 PM 69.8 °F 37.4 °F 31% 29.86 in 10.0 mi South 16.1 mph - N/A   Partly Cloudy
10:52 PM 68.0 °F 39.9 °F 36% 29.87 in 10.0 mi South 12.7 mph - N/A   Clear
11:52 PM 66.0 °F 41.0 °F 40% 29.92 in 10.0 mi West 10.4 mph - N/A   Partly Cloudy